Esquel, Argentina

9:57 AM -03 on October 16, 2019 (GMT -0300)
Esquel

Weather History for 87803 - August, 2019

Change the Weather History Date:

Monday, August 19, 2019

  Actual Average Record
Temperature  
Mean Temperature 38 °F -  
Max Temperature 46 °F 51 °F - ()
Min Temperature 31 °F 30 °F - ()
Degree Days  
Heating Degree Days 26    
Moisture  
Dew Point 30 °F    
Average Humidity 67    
Maximum Humidity 87    
Minimum Humidity 40    
Precipitation  
Precipitation 0.00 in 0.06 in - ()
Sea Level Pressure  
Sea Level Pressure 30.27 in    
Wind  
Wind Speed 7 mph ()    
Max Wind Speed 13 mph    
Max Gust Speed -    
Visibility 18.0 miles    
Events Rain    
T = Trace of Precipitation, MM = Missing Value Source: Averaged Metar Reports

Daily Weather History Graph

Daily Weather History Graph

Search for Another Location

Airport or City:

Astronomy

Aug. 19, 2019 Rise Set
Actual Time 8:32 AM -03 7:04 PM -03
Civil Twilight 8:03 AM -03 7:33 PM -03
Nautical Twilight 7:29 AM -03 8:07 PM -03
Astronomical Twilight 6:57 AM -03 8:40 PM -03
Moon 11:08 PM -03 (8/19) 10:42 AM -03 (8/19)
Length of Visible Light 11h 30m
Length of Day
10h 32m
Waning Gibbous, 85% of the Moon is Illuminated
Aug 19
Waning Gibbous
Aug 23
Last Quarter
Aug 30
New
Sep 6
First Quarter
Sep 14
Full

Hourly Weather History & Observations

Time (-03) Temp. Dew Point Humidity Pressure Visibility Wind Dir Wind Speed Gust Speed Precip Events Conditions
12:00 AM 36 °F 26 °F 55% 30.36 in 19 mi NE 12.7 mph - -   Mostly Cloudy
2:00 AM 34 °F 30 °F 80% 30.34 in 19 mi NE 10.4 mph - -   Mostly Cloudy
3:00 AM 33 °F 30 °F 83% 30.33 in 19 mi NE 9.2 mph - -   Mostly Cloudy
4:00 AM 33 °F 30 °F 82% 30.31 in 19 mi ENE 9.2 mph - -   Partly Cloudy
5:00 AM 32 °F 29 °F 84% 30.30 in 19 mi NE 8.1 mph - -   Partly Cloudy
6:00 AM 33 °F 29 °F 79% 30.29 in 19 mi NE 6.9 mph - -   Scattered Clouds
7:00 AM 32 °F 30 °F 87% 30.28 in 19 mi NE 6.9 mph - -   Partly Cloudy
8:00 AM 33 °F 30 °F 83% 30.27 in 19 mi NE 5.8 mph - -   Partly Cloudy
9:00 AM 33 °F 30 °F 83% 30.27 in 12 mi NE 5.8 mph - -   Mostly Cloudy
10:00 AM 33 °F 30 °F 83% 30.28 in 16 mi NE 10.4 mph - -   Mostly Cloudy
11:00 AM 35 °F 30 °F 76% 30.28 in 16 mi North 5.8 mph - -   Mostly Cloudy
12:00 PM 37 °F 31 °F 69% 30.27 in 19 mi NE 11.5 mph - -   Mostly Cloudy
1:00 PM 39 °F 30 °F 60% 30.26 in 19 mi NE 5.8 mph - -   Mostly Cloudy
2:00 PM 41 °F 30 °F 55% 30.25 in 19 mi NE 5.8 mph - -   Scattered Clouds
3:00 PM 42 °F 30 °F 52% 30.23 in 19 mi NE 1.2 mph - -   Partly Cloudy
4:00 PM 45 °F 30 °F 44% 30.21 in 19 mi North 1.2 mph - -   Partly Cloudy
5:00 PM 46 °F 30 °F 40% 30.21 in 19 mi North 4.6 mph - -   Partly Cloudy
6:00 PM 45 °F 29 °F 42% 30.22 in 19 mi NE 2.3 mph - -   Mostly Cloudy
7:00 PM 42 °F 31 °F 56% 30.24 in 19 mi SW 3.5 mph - -   Mostly Cloudy
8:00 PM 41 °F 32 °F 62% 30.26 in 19 mi NE 4.6 mph - -   Mostly Cloudy
9:00 PM 41 °F 32 °F 61% 30.27 in 12 mi NE 2.3 mph - - Rain Light Rain
10:00 PM 40 °F 32 °F 64% 30.27 in 16 mi NE 2.3 mph - - Rain Light Rain
11:00 PM 39 °F 32 °F 67% 30.30 in 19 mi NE 4.6 mph - -   Partly Cloudy